Wind_Speed
14 12 9 7 7 7 7 6 5 5 6 5 5 3 1 2 3 6 7 9 9 11 13 15 17 21 20 19 13 18 25 30 39 38 34 30 27 22 19 17 13 10 9
15 13 11 10 8 7 8 8 7 6 6 6 6 5 3 2 3 7 8 10 9 10 13 16 16 16 15 17 9 13 20 31 37 41 35 31 26 22 20 17 13 11 8
17 15 14 12 9 8 9 10 9 8 6 6 7 6 4 5 6 8 9 9 9 8 10 11 12 14 16 16 11 11 20 31 33 36 36 31 27 23 21 17 14 11 8
19 18 15 13 11 10 10 10 10 10 8 7 8 8 7 6 7 9 10 10 9 9 11 12 11 15 16 18 14 15 27 26 35 32 35 34 29 25 20 17 16 12 10
20 18 16 15 14 13 12 10 12 12 10 9 9 10 9 8 8 10 10 10 11 12 12 15 15 15 17 20 15 23 26 24 28 31 33 33 29 27 24 20 16 14 12
19 17 18 18 17 15 13 11 12 13 12 11 10 12 12 11 10 10 10 10 10 12 12 18 19 18 21 21 17 16 13 14 23 30 32 31 27 27 24 23 19 17 15
19 18 19 19 18 17 15 14 12 13 14 12 11 12 15 14 12 11 10 11 10 11 12 15 21 21 22 21 20 15 12 13 13 16 24 25 28 23 22 24 20 17 14
16 18 19 19 18 17 16 14 12 12 13 13 11 11 15 17 15 13 12 12 11 11 12 15 19 24 25 24 22 17 16 15 16 16 20 22 25 19 23 22 21 20 14
15 16 17 17 16 16 16 13 11 11 12 12 11 9 12 17 17 16 14 13 15 13 12 16 20 22 24 25 23 20 17 16 15 14 16 19 26 23 22 23 23 22 20
12 14 14 14 14 14 13 12 11 11 12 12 11 11 11 16 18 16 16 17 16 15 14 16 21 21 23 22 23 22 20 18 16 17 17 18 20 22 21 21 24 23 21
11 11 11 12 12 12 12 12 11 10 11 11 11 11 11 14 19 15 14 17 19 18 17 16 21 22 23 22 22 22 20 17 17 16 19 21 22 24 23 23 23 24 21
11 10 9 10 10 10 10 10 10 9 10 7 5 8 10 14 20 15 17 14 18 17 17 20 22 21 20 21 22 22 19 19 17 18 19 20 22 22 22 24 24 25 25
16 13 9 7 7 7 8 9 10 9 9 7 8 8 9 14 15 15 15 16 16 16 15 14 16 22 24 25 26 24 23 22 21 21 20 18 18 19 20 22 25 26 26
17 15 13 10 6 4 6 7 8 9 10 10 10 10 9 11 14 13 14 15 19 18 16 16 15 17 20 23 25 25 24 24 24 24 23 21 21 23 23 24 25 27 28
13 11 9 7 6 4 2 3 7 9 10 12 11 11 12 13 11 10 13 2 11 19 21 19 20 20 22 24 26 26 26 27 27 27 26 26 25 26 25 25 27 28 31
11 8 5 2 2 2 1 1 3 6 9 11 14 13 14 14 14 12 11 10 11 11 7 18 22 23 22 24 25 26 28 27 27 26 26 28 31 30 29 28 29 32 34
10 8 5 2 3 6 6 5 4 4 6 9 12 14 16 16 17 17 15 14 13 13 13 20 15 13 25 28 28 26 25 27 28 26 25 30 30 30 32 32 32 31 35
10 8 6 5 4 5 7 9 9 7 6 6 7 10 13 16 18 19 19 16 15 16 18 13 14 17 19 17 24 30 32 32 34 32 33 32 32 34 35 36 37 35 35
8 7 6 6 6 5 6 7 10 12 11 8 7 7 8 10 13 16 19 20 18 15 15 18 16 17 16 17 19 20 24 27 28 30 31 33 34 36 37 38 38 39 39
6 7 7 9 9 8 8 9 9 10 11 12 11 9 9 9 9 10 14 17 17 17 18 16 14 12 13 14 15 15 19 24 25 29 32 32 33 35 36 39 41 44 44
7 7 8 9 8 7 8 9 10 10 10 11 11 11 12 13 13 12 11 12 15 17 21 20 22 21 19 20 20 22 23 21 23 25 27 30 34 37 38 38 40 42 44
5 5 6 6 6 7 7 8 8 9 10 11 11 11 12 12 14 15 15 15 15 15 16 19 21 22 22 22 21 22 23 24 23 23 27 29 31 31 33 36 38 41 43
4 4 5 6 6 6 6 7 8 9 9 11 11 12 12 11 12 14 15 16 17 18 18 19 19 20 20 21 21 21 23 24 24 23 24 26 28 31 31 33 35 38 41
4 4 5 6 7 7 7 7 8 9 10 11 12 13 13 13 13 14 14 15 16 18 19 20 20 21 21 21 20 20 21 21 22 23 24 24 26 28 30 31 33 35 37
5 6 7 7 8 9 10 10 10 11 11 11 12 13 14 15 17 17 17 18 18 18 18 19 20 21 22 22 23 23 21 20 20 21 23 23 24 26 28 29 30 32 34
8 9 10 11 11 12 11 11 11 12 12 12 13 14 15 15 16 16 17 17 19 20 20 21 20 20 21 22 23 23 24 21 20 20 21 23 24 25 27 29 31 32 33
Wind_Direction
201 202 200 204 210 204 203 204 201 197 185 197 210 232 246 67 85 143 124 129 118 128 139 159 149 157 163 161 155 164 163 166 150 141 145 150 157 158 158 157 155 161 153
206 206 204 206 214 208 204 207 198 201 198 197 207 215 218 166 143 154 150 142 133 119 136 156 158 162 172 166 165 169 180 173 167 159 155 159 163 168 169 170 172 174 162
212 212 213 212 212 215 211 210 206 204 203 203 206 210 209 183 174 160 174 181 170 174 159 150 172 172 175 175 168 179 186 180 176 165 160 166 170 172 174 181 181 180 178
217 218 220 219 217 219 219 214 212 212 210 211 207 208 212 199 196 187 184 191 207 197 198 195 185 179 183 176 160 165 163 173 170 174 174 175 180 175 186 189 185 179 177
220 222 223 223 223 222 222 219 217 216 214 217 215 212 212 207 201 197 196 191 196 209 203 202 193 190 181 167 180 182 178 183 187 187 183 184 187 187 192 194 192 188 182
226 226 225 226 226 225 224 223 220 220 219 220 222 216 216 210 206 211 212 202 198 199 211 201 196 191 186 185 186 187 190 200 201 201 199 197 197 200 200 201 200 192 181
221 221 224 225 225 223 221 224 222 220 222 225 228 227 216 215 211 209 211 210 198 202 207 198 194 191 188 191 180 174 191 212 230 238 220 212 207 210 219 207 209 211 208
219 218 219 219 220 220 220 219 219 223 226 231 238 234 223 215 215 215 220 215 210 201 204 205 203 196 191 195 202 204 205 207 218 229 237 230 225 227 222 222 216 207 203
211 211 212 214 217 219 219 219 220 223 225 233 243 236 220 218 214 213 222 225 222 218 215 202 203 205 200 199 206 211 223 221 212 219 233 236 236 234 231 225 217 214 211
190 194 197 201 207 211 214 215 217 221 221 226 237 234 226 223 216 211 215 228 221 228 222 222 209 205 209 205 211 221 225 223 204 206 205 221 229 237 243 240 237 229 220
160 173 182 192 200 205 206 209 216 220 223 232 246 239 231 214 220 219 224 225 229 224 239 222 211 204 214 212 222 225 230 218 219 225 231 227 228 232 233 230 230 232 231
133 150 165 181 191 197 203 208 215 219 222 225 234 235 228 210 206 219 227 226 228 227 231 236 217 208 216 220 222 225 225 219 220 234 241 240 237 237 233 226 223 224 223
100 105 121 146 171 187 199 207 216 221 220 211 229 232 238 219 213 224 235 239 235 233 229 232 231 232 233 228 228 223 220 219 227 237 240 245 240 236 229 224 220 220 222
91 89 88 89 99 152 201 212 221 227 218 211 215 222 228 218 224 244 263 273 239 230 229 224 224 230 229 226 215 212 217 227 236 242 247 245 237 233 226 224 226 224 223
80 75 71 70 73 82 106 226 231 230 224 215 222 224 226 226 235 238 253 263 249 237 230 234 231 231 228 227 225 227 229 234 239 243 241 240 240 232 229 226 224 226 228
65 63 59 38 342 340 334 292 250 245 239 234 223 228 234 237 241 243 239 233 225 254 265 245 233 239 249 244 244 240 238 243 244 246 246 239 240 236 228 227 228 226 229
43 33 24 352 263 254 259 265 268 260 249 244 240 236 230 237 241 242 246 239 230 240 254 255 277 275 245 240 253 247 258 259 257 247 254 246 241 236 233 230 233 233 231
19 2 344 328 302 274 259 261 265 262 253 254 249 247 247 242 239 242 247 251 254 255 256 266 278 271 270 264 250 246 247 248 256 251 256 251 245 239 235 233 234 237 238
358 335 317 302 295 290 283 271 263 265 264 261 257 260 258 255 249 246 249 251 251 256 260 247 252 262 269 268 262 259 255 253 252 254 251 254 250 246 242 242 240 239 239
333 314 299 288 286 282 277 270 268 266 266 267 266 260 260 260 258 255 253 255 253 246 251 253 249 252 270 273 274 274 268 259 254 251 252 251 254 254 251 248 246 243 241
325 317 302 289 291 287 278 269 266 268 270 271 270 268 264 264 265 258 256 257 260 254 247 253 256 262 262 268 274 269 267 270 264 257 255 256 255 253 254 252 251 250 248
347 336 318 307 298 293 287 279 268 265 269 272 274 273 266 265 267 268 265 262 262 263 260 257 257 258 260 263 269 273 274 267 269 269 263 259 258 257 256 254 254 252 250
5 5 354 348 342 333 318 302 293 285 276 274 278 281 280 273 266 266 267 267 266 265 263 260 262 264 263 265 267 271 275 275 269 270 272 268 263 259 257 256 255 253 251
332 336 339 336 330 326 322 316 309 305 297 292 288 285 282 280 277 273 273 273 272 271 270 268 265 265 264 266 270 271 274 277 271 267 269 269 267 264 259 257 256 255 254
318 328 330 327 323 318 314 312 310 306 300 295 290 286 285 282 281 282 280 279 276 271 272 276 275 272 268 265 263 265 270 275 278 273 267 267 268 266 263 261 259 258 255
312 317 318 318 316 315 314 313 310 305 299 293 289 288 286 285 284 285 285 282 281 279 276 274 273 276 274 272 269 265 259 261 271 274 270 265 264 265 266 265 264 262 259
Height
1489 1492 1494 1496 1498 1499 1500 1503 1503 1504 1505 1507 1508 1510 1511 1510 1510 1511 1513 1514 1515 1514 1514 1517 1520 1522 1525 1528 1531 1534 1537 1538 1539 1549 1554 1558 1562 1565 1567 1570 1571 1573 1575
1487 1489 1491 1493 1496 1497 1498 1499 1501 1503 1504 1505 1507 1509 1510 1510 1510 1511 1513 1514 1517 1518 1518 1519 1522 1524 1527 1530 1532 1535 1538 1539 1539 1544 1553 1558 1561 1565 1567 1569 1572 1574 1575
1485 1487 1488 1490 1493 1496 1497 1497 1498 1500 1502 1504 1505 1507 1509 1510 1511 1511 1514 1516 1516 1519 1521 1522 1523 1525 1528 1531 1533 1536 1538 1541 1544 1546 1551 1558 1561 1564 1566 1570 1572 1573 1575
1480 1483 1485 1488 1490 1492 1495 1495 1496 1498 1500 1502 1503 1505 1507 1509 1510 1511 1512 1513 1517 1518 1520 1522 1524 1526 1528 1531 1534 1536 1539 1544 1547 1549 1553 1556 1560 1563 1567 1569 1571 1573 1574
1476 1479 1482 1484 1488 1489 1491 1492 1493 1495 1497 1499 1502 1502 1505 1507 1508 1509 1510 1513 1514 1517 1519 1521 1523 1526 1530 1532 1535 1537 1540 1544 1547 1550 1552 1555 1558 1561 1564 1568 1570 1571 1573
1472 1475 1477 1480 1483 1487 1488 1489 1490 1492 1494 1496 1499 1500 1502 1504 1506 1507 1509 1511 1513 1515 1517 1519 1522 1525 1529 1532 1535 1538 1540 1543 1545 1547 1550 1552 1556 1559 1562 1565 1567 1569 1571
1466 1469 1472 1475 1479 1482 1484 1485 1487 1488 1491 1493 1496 1498 1499 1501 1504 1506 1507 1508 1511 1513 1516 1517 1520 1523 1527 1531 1534 1536 1539 1542 1545 1546 1546 1550 1551 1556 1559 1561 1564 1567 1569
1461 1464 1468 1472 1475 1478 1481 1482 1484 1486 1488 1490 1492 1494 1497 1499 1501 1503 1505 1506 1508 1511 1513 1516 1519 1521 1523 1527 1531 1534 1536 1538 1540 1543 1545 1547 1551 1553 1557 1559 1561 1564 1567
1457 1460 1465 1468 1472 1475 1477 1479 1481 1484 1486 1488 1490 1491 1492 1496 1498 1500 1502 1504 1506 1508 1511 1513 1516 1519 1522 1525 1528 1531 1534 1535 1537 1540 1543 1545 1548 1551 1554 1556 1559 1562 1564
1455 1458 1461 1465 1469 1472 1475 1476 1477 1480 1483 1485 1486 1487 1489 1492 1495 1496 1498 1501 1503 1505 1507 1510 1513 1516 1519 1522 1525 1528 1530 1532 1534 1537 1539 1542 1545 1547 1550 1554 1556 1558 1561
1454 1457 1460 1463 1467 1469 1471 1473 1475 1477 1479 1481 1482 1483 1485 1488 1492 1494 1495 1497 1499 1502 1502 1506 1509 1512 1515 1519 1522 1525 1528 1530 1532 1534 1535 1538 1540 1542 1545 1548 1551 1554 1558
1454 1456 1458 1462 1465 1467 1469 1471 1473 1475 1477 1478 1479 1482 1482 1483 1487 1490 1491 1493 1495 1498 1500 1501 1504 1509 1512 1514 1517 1521 1524 1526 1528 1530 1532 1533 1535 1536 1539 1542 1546 1550 1553
1455 1457 1459 1461 1463 1465 1467 1469 1472 1473 1475 1476 1478 1479 1480 1481 1484 1486 1488 1490 1492 1494 1496 1498 1501 1504 1507 1509 1513 1516 1520 1522 1524 1525 1527 1528 1531 1534 1536 1539 1542 1545 1549
1458 1459 1460 1461 1462 1464 1465 1467 1469 1471 1472 1473 1475 1476 1477 1480 1482 1483 1483 1485 1488 1490 1493 1495 1496 1499 1502 1504 1508 1511 1514 1517 1519 1520 1522 1525 1526 1528 1531 1534 1537 1540 1543
1459 1460 1461 1461 1463 1464 1465 1466 1467 1468 1469 1471 1472 1474 1475 1477 1479 1480 1482 1482 1483 1486 1489 1491 1493 1494 1497 1500 1503 1506 1509 1511 1512 1514 1516 1518 1521 1522 1525 1528 1531 1535 1536
1458 1460 1460 1461 1462 1463 1464 1465 1465 1466 1466 1468 1469 1471 1472 1473 1475 1477 1479 1479 1480 1483 1485 1486 1488 1490 1492 1495 1496 1499 1501 1503 1505 1507 1510 1511 1514 1515 1518 1521 1524 1527 1530
1457 1458 1459 1459 1460 1461 1461 1462 1463 1463 1463 1464 1465 1466 1468 1470 1471 1473 1475 1476 1477 1479 1481 1483 1484 1484 1486 1488 1491 1492 1495 1498 1499 1500 1502 1504 1506 1508 1511 1514 1516 1520 1522
1454 1457 1458 1458 1458 1459 1458 1458 1459 1461 1461 1461 1461 1461 1463 1465 1467 1468 1470 1471 1473 1474 1476 1477 1479 1480 1480 1481 1482 1485 1487 1490 1491 1494 1496 1497 1498 1501 1503 1505 1507 1510 1513
1453 1455 1456 1456 1455 1454 1454 1455 1455 1457 1457 1458 1458 1458 1459 1460 1461 1462 1464 1466 1467 1469 1470 1471 1472 1473 1474 1475 1476 1477 1478 1480 1482 1484 1486 1488 1490 1492 1495 1497 1500 1502 1504
1452 1453 1453 1454 1451 1450 1451 1451 1453 1453 1453 1453 1454 1455 1455 1456 1456 1457 1458 1460 1461 1463 1464 1465 1466 1467 1467 1468 1469 1470 1471 1472 1473 1475 1477 1479 1481 1483 1485 1488 1490 1491 1494
1448 1448 1449 1450 1448 1446 1447 1448 1449 1448 1448 1449 1450 1451 1451 1452 1453 1453 1453 1454 1455 1456 1458 1459 1460 1461 1462 1462 1463 1464 1464 1465 1465 1466 1467 1469 1471 1473 1475 1477 1479 1482 1484
1444 1445 1447 1446 1445 1444 1444 1445 1445 1445 1445 1445 1445 1445 1446 1447 1448 1449 1450 1450 1450 1451 1451 1452 1453 1454 1455 1456 1456 1456 1457 1457 1457 1458 1459 1460 1461 1462 1464 1466 1468 1470 1473
1443 1443 1444 1443 1442 1442 1442 1442 1442 1442 1441 1441 1440 1440 1441 1441 1443 1444 1444 1444 1445 1446 1446 1446 1446 1447 1448 1448 1449 1449 1449 1449 1450 1450 1450 1450 1451 1452 1454 1456 1457 1459 1461
1441 1441 1441 1441 1441 1441 1441 1440 1439 1438 1438 1437 1437 1436 1436 1436 1437 1438 1437 1438 1438 1438 1438 1439 1439 1440 1440 1441 1442 1442 1442 1442 1441 1441 1442 1442 1442 1442 1444 1445 1446 1448 1450
1438 1438 1438 1438 1439 1439 1439 1437 1436 1435 1434 1434 1433 1432 1432 1432 1432 1432 1432 1432 1431 1431 1431 1431 1431 1432 1432 1433 1433 1434 1435 1435 1435 1434 1434 1434 1434 1434 1434 1435 1437 1438 1440
1436 1435 1435 1435 1436 1435 1435 1433 1432 1431 1431 1430 1429 1428 1427 1427 1427 1426 1426 1425 1424 1424 1424 1424 1424 1424 1424 1424 1425 1425 1426 1427 1428 1428 1427 1426 1426 1426 1426 1426 1427 1428 1430